Time,TemperatureF,DewpointF,PressureIn,WindDirection,WindDirectionDegrees,WindSpeedMPH,WindSpeedGustMPH,Humidity,HourlyPrecipIn,Conditions,Clouds,dailyrainin,SoftwareType,DateUTC
2013-02-27 00:03:00,27.9,24.0,29.40,North,8,8.7,15.0,85,0.00,,,0.00,VWS V14.01,2013-02-27 06:03:00,
2013-02-27 00:08:00,27.9,24.0,29.40,North,10,12.8,13.2,85,0.00,,,0.00,VWS V14.01,2013-02-27 06:08:00,
2013-02-27 00:14:00,27.9,24.0,29.40,North,0,11.9,16.3,85,0.00,,,0.00,VWS V14.01,2013-02-27 06:14:00,
2013-02-27 00:19:00,27.9,24.0,29.40,North,357,8.7,12.8,85,0.00,,,0.00,VWS V14.01,2013-02-27 06:19:00,
2013-02-27 00:25:00,27.9,24.0,29.40,North,4,11.4,12.8,85,0.00,,,0.00,VWS V14.01,2013-02-27 06:25:00,
2013-02-27 00:30:00,27.9,24.0,29.40,NNE,21,12.8,17.4,85,0.00,,,0.00,VWS V14.01,2013-02-27 06:30:00,
2013-02-27 00:36:00,27.9,24.0,29.40,NE,45,15.0,16.8,85,0.00,,,0.00,VWS V14.01,2013-02-27 06:36:00,
2013-02-27 00:42:00,27.9,24.0,29.40,North,5,12.8,12.8,85,0.00,,,0.00,VWS V14.01,2013-02-27 06:42:00,
2013-02-27 00:47:00,27.9,24.0,29.40,North,0,12.8,12.8,85,0.00,,,0.00,VWS V14.01,2013-02-27 06:47:00,
2013-02-27 00:52:00,27.9,24.0,29.40,North,7,10.5,12.3,85,0.00,,,0.00,VWS V14.01,2013-02-27 06:52:00,
2013-02-27 00:57:00,27.9,24.0,29.40,NE,34,12.3,14.5,85,0.00,,,0.00,VWS V14.01,2013-02-27 06:57:00,
2013-02-27 01:02:00,27.9,24.2,29.40,NNE,21,15.4,15.4,86,0.00,,,0.00,VWS V14.01,2013-02-27 07:02:00,
2013-02-27 01:08:00,27.9,24.2,29.40,North,3,10.1,12.8,86,0.00,,,0.00,VWS V14.01,2013-02-27 07:08:00,
2013-02-27 01:13:00,27.7,24.0,29.40,NNE,16,8.1,12.8,86,0.00,,,0.00,VWS V14.01,2013-02-27 07:13:00,
2013-02-27 01:19:00,27.7,24.3,29.40,NNE,14,13.2,15.0,87,0.00,,,0.00,VWS V14.01,2013-02-27 07:19:00,
2013-02-27 01:24:00,27.7,24.3,29.40,NE,36,15.9,15.9,87,0.00,,,0.00,VWS V14.01,2013-02-27 07:24:00,
2013-02-27 01:30:00,27.7,24.3,29.40,North,2,10.5,11.0,87,0.00,,,0.00,VWS V14.01,2013-02-27 07:30:00,
2013-02-27 01:35:00,27.7,24.3,29.40,NNE,31,8.3,15.0,87,0.00,,,0.00,VWS V14.01,2013-02-27 07:35:00,
2013-02-27 01:41:00,27.7,24.3,29.40,NNE,13,15.4,17.4,87,0.00,,,0.00,VWS V14.01,2013-02-27 07:41:00,
2013-02-27 01:47:00,27.7,24.3,29.40,NNE,21,10.1,15.4,87,0.00,,,0.00,VWS V14.01,2013-02-27 07:47:00,
2013-02-27 01:52:00,27.7,24.0,29.40,North,5,17.9,17.9,86,0.00,,,0.00,VWS V14.01,2013-02-27 07:52:00,
2013-02-27 01:57:00,27.7,24.0,29.40,NNE,17,10.5,10.5,86,0.00,,,0.00,VWS V14.01,2013-02-27 07:57:00,
2013-02-27 02:03:00,27.7,24.0,29.40,NNE,13,11.0,13.6,86,0.00,,,0.00,VWS V14.01,2013-02-27 08:03:00,
2013-02-27 02:09:00,27.7,23.8,29.40,North,357,12.8,16.3,85,0.00,,,0.00,VWS V14.01,2013-02-27 08:09:00,
2013-02-27 02:14:00,27.7,23.8,29.40,North,0,13.2,15.4,85,0.00,,,0.00,VWS V14.01,2013-02-27 08:14:00,
2013-02-27 02:20:00,27.5,23.6,29.40,North,3,15.9,15.9,85,0.00,,,0.00,VWS V14.01,2013-02-27 08:20:00,
2013-02-27 02:25:00,27.7,23.8,29.40,North,10,11.0,15.9,85,0.00,,,0.00,VWS V14.01,2013-02-27 08:25:00,
2013-02-27 02:30:00,27.7,23.8,29.40,NNE,29,12.3,12.8,85,0.00,,,0.00,VWS V14.01,2013-02-27 08:30:00,
2013-02-27 02:35:00,27.7,23.8,29.40,NNE,16,10.1,10.1,85,0.00,,,0.00,VWS V14.01,2013-02-27 08:35:00,
2013-02-27 02:40:00,27.5,23.3,29.37,North,353,8.3,12.8,84,0.00,,,0.00,VWS V14.01,2013-02-27 08:40:00,
2013-02-27 02:45:00,27.7,23.8,29.37,North,4,8.7,13.2,85,0.00,,,0.00,VWS V14.01,2013-02-27 08:45:00,
2013-02-27 02:50:00,27.7,23.8,29.37,North,357,12.3,13.2,85,0.00,,,0.00,VWS V14.01,2013-02-27 08:50:00,
2013-02-27 02:56:00,27.7,23.8,29.37,North,6,15.0,15.0,85,0.00,,,0.00,VWS V14.01,2013-02-27 08:56:00,
2013-02-27 03:01:00,27.7,24.0,29.37,NNE,14,8.3,15.4,86,0.00,,,0.00,VWS V14.01,2013-02-27 09:01:00,
2013-02-27 03:06:00,27.7,24.0,29.37,NNE,21,8.7,13.2,86,0.00,,,0.00,VWS V14.01,2013-02-27 09:06:00,
2013-02-27 03:12:00,27.5,23.9,29.37,NNE,13,14.5,14.5,86,0.00,,,0.00,VWS V14.01,2013-02-27 09:12:00,
2013-02-27 03:17:00,27.5,24.1,29.37,NNE,17,10.1,14.5,87,0.00,,,0.00,VWS V14.01,2013-02-27 09:17:00,
2013-02-27 03:22:00,27.5,24.1,29.37,North,8,8.3,10.5,87,0.00,,,0.00,VWS V14.01,2013-02-27 09:22:00,
2013-02-27 03:27:00,27.3,24.0,29.37,NNE,20,11.0,11.0,87,0.00,,,0.00,VWS V14.01,2013-02-27 09:27:00,
2013-02-27 03:33:00,27.3,24.0,29.37,NNE,27,10.1,11.0,87,0.00,,,0.00,VWS V14.01,2013-02-27 09:33:00,
2013-02-27 03:38:00,27.3,24.2,29.37,North,9,11.4,15.0,88,0.00,,,0.00,VWS V14.01,2013-02-27 09:38:00,
2013-02-27 03:44:00,27.1,24.1,29.37,NNE,12,10.1,12.8,88,0.00,,,0.00,VWS V14.01,2013-02-27 09:44:00,
2013-02-27 03:49:00,27.1,24.1,29.37,North,3,15.0,15.0,88,0.00,,,0.00,VWS V14.01,2013-02-27 09:49:00,
2013-02-27 03:55:00,27.1,24.1,29.37,NNE,15,12.3,12.3,88,0.00,,,0.00,VWS V14.01,2013-02-27 09:55:00,
2013-02-27 04:01:00,27.1,24.1,29.37,North,8,9.6,14.1,88,0.00,,,0.00,VWS V14.01,2013-02-27 10:01:00,
2013-02-27 04:06:00,27.1,24.1,29.37,NNE,22,8.1,12.8,88,0.00,,,0.00,VWS V14.01,2013-02-27 10:06:00,
2013-02-27 04:11:00,27.1,24.1,29.37,North,8,11.0,11.9,88,0.00,,,0.00,VWS V14.01,2013-02-27 10:11:00,
2013-02-27 04:16:00,27.0,23.9,29.37,North,2,13.2,13.2,88,0.00,,,0.00,VWS V14.01,2013-02-27 10:16:00,
2013-02-27 04:21:00,27.0,23.9,29.37,NNE,12,12.3,15.9,88,0.00,,,0.00,VWS V14.01,2013-02-27 10:21:00,
2013-02-27 04:26:00,27.0,23.9,29.37,NNE,18,8.3,12.3,88,0.00,,,0.00,VWS V14.01,2013-02-27 10:26:00,
2013-02-27 04:31:00,27.0,23.9,29.37,North,357,14.5,14.5,88,0.00,,,0.00,VWS V14.01,2013-02-27 10:31:00,
2013-02-27 04:36:00,27.0,23.9,29.37,North,9,12.3,15.0,88,0.00,,,0.00,VWS V14.01,2013-02-27 10:36:00,
2013-02-27 04:41:00,27.0,23.9,29.37,North,7,11.0,17.0,88,0.00,,,0.00,VWS V14.01,2013-02-27 10:41:00,
2013-02-27 04:47:00,27.1,24.3,29.37,NNE,18,13.2,13.2,89,0.00,,,0.00,VWS V14.01,2013-02-27 10:47:00,
2013-02-27 04:52:00,27.0,24.2,29.37,NNE,22,11.0,15.0,89,0.00,,,0.00,VWS V14.01,2013-02-27 10:52:00,
2013-02-27 04:57:00,27.1,24.3,29.37,NNE,14,12.8,13.2,89,0.00,,,0.00,VWS V14.01,2013-02-27 10:57:00,
2013-02-27 05:03:00,27.1,24.1,29.37,North,353,8.7,13.2,88,0.00,,,0.00,VWS V14.01,2013-02-27 11:03:00,
2013-02-27 05:09:00,27.1,24.1,29.37,NNE,23,16.8,16.8,88,0.00,,,0.00,VWS V14.01,2013-02-27 11:09:00,
2013-02-27 05:15:00,27.1,24.1,29.37,North,1,11.0,15.4,88,0.00,,,0.00,VWS V14.01,2013-02-27 11:15:00,
2013-02-27 05:20:00,27.1,24.1,29.37,NNE,25,11.4,17.4,88,0.00,,,0.00,VWS V14.01,2013-02-27 11:20:00,
2013-02-27 05:26:00,27.1,24.1,29.37,NNE,13,11.0,14.5,88,0.00,,,0.00,VWS V14.01,2013-02-27 11:26:00,
2013-02-27 05:32:00,27.1,23.8,29.37,North,357,11.4,11.9,87,0.00,,,0.00,VWS V14.01,2013-02-27 11:32:00,
2013-02-27 05:37:00,27.1,23.8,29.37,NNE,14,11.9,17.9,87,0.00,,,0.00,VWS V14.01,2013-02-27 11:37:00,
2013-02-27 05:42:00,27.1,23.8,29.37,NNE,24,12.8,12.8,87,0.00,,,0.00,VWS V14.01,2013-02-27 11:42:00,
2013-02-27 05:47:00,27.1,23.5,29.37,NNE,31,11.0,16.3,86,0.00,,,0.00,VWS V14.01,2013-02-27 11:47:00,
2013-02-27 05:52:00,27.1,23.5,29.37,NNE,15,11.9,15.9,86,0.00,,,0.00,VWS V14.01,2013-02-27 11:52:00,
2013-02-27 05:58:00,27.1,23.8,29.37,North,353,13.2,15.0,87,0.00,,,0.00,VWS V14.01,2013-02-27 11:58:00,
2013-02-27 06:04:00,27.1,23.5,29.37,North,4,10.5,12.8,86,0.00,,,0.00,VWS V14.01,2013-02-27 12:04:00,
2013-02-27 06:09:00,27.1,23.5,29.37,NNE,31,9.2,16.3,86,0.00,,,0.00,VWS V14.01,2013-02-27 12:09:00,
2013-02-27 06:15:00,27.1,23.2,29.37,North,0,13.2,13.2,85,0.00,,,0.00,VWS V14.01,2013-02-27 12:15:00,
2013-02-27 06:21:00,27.1,23.2,29.37,NNE,18,19.2,19.2,85,0.00,,,0.00,VWS V14.01,2013-02-27 12:21:00,
2013-02-27 06:26:00,27.0,23.1,29.37,North,11,15.0,15.0,85,0.00,,,0.00,VWS V14.01,2013-02-27 12:26:00,
2013-02-27 06:32:00,27.1,23.2,29.37,North,357,15.4,15.9,85,0.00,,,0.00,VWS V14.01,2013-02-27 12:32:00,
2013-02-27 06:37:00,27.1,23.2,29.37,NNE,18,7.6,14.1,85,0.00,,,0.00,VWS V14.01,2013-02-27 12:37:00,
2013-02-27 06:43:00,27.1,23.2,29.37,NNE,12,8.1,17.4,85,0.00,,,0.00,VWS V14.01,2013-02-27 12:43:00,
2013-02-27 06:48:00,27.1,23.2,29.37,NNE,33,7.6,11.0,85,0.00,,,0.00,VWS V14.01,2013-02-27 12:48:00,
2013-02-27 06:53:00,27.1,23.5,29.37,NNE,24,11.0,12.3,86,0.00,,,0.00,VWS V14.01,2013-02-27 12:53:00,
2013-02-27 06:58:00,27.3,23.7,29.37,NNE,14,11.0,15.0,86,0.00,,,0.00,VWS V14.01,2013-02-27 12:58:00,
2013-02-27 07:03:00,27.3,23.7,29.37,North,3,13.6,17.4,86,0.00,,,0.00,VWS V14.01,2013-02-27 13:03:00,
2013-02-27 07:08:00,27.3,23.4,29.37,North,6,8.7,11.0,85,0.00,,,0.00,VWS V14.01,2013-02-27 13:08:00,
2013-02-27 07:14:00,27.5,23.6,29.37,North,4,12.3,17.0,85,0.00,,,0.00,VWS V14.01,2013-02-27 13:14:00,
2013-02-27 07:19:00,27.5,23.6,29.37,North,8,8.3,12.8,85,0.00,,,0.00,VWS V14.01,2013-02-27 13:19:00,
2013-02-27 07:24:00,27.5,23.6,29.37,NNE,16,10.5,12.3,85,0.00,,,0.00,VWS V14.01,2013-02-27 13:24:00,
2013-02-27 07:29:00,27.7,23.5,29.37,North,349,12.8,12.8,84,0.00,,,0.00,VWS V14.01,2013-02-27 13:29:00,
2013-02-27 07:35:00,27.7,23.5,29.37,NNE,14,21.5,21.5,84,0.00,,,0.00,VWS V14.01,2013-02-27 13:35:00,
2013-02-27 07:40:00,27.7,23.5,29.37,North,6,13.2,14.5,84,0.00,,,0.00,VWS V14.01,2013-02-27 13:40:00,
2013-02-27 07:46:00,27.9,23.4,29.37,NNE,26,17.4,17.4,83,0.00,,,0.00,VWS V14.01,2013-02-27 13:46:00,
2013-02-27 07:51:00,27.9,23.4,29.37,NNE,31,13.6,15.9,83,0.00,,,0.00,VWS V14.01,2013-02-27 13:51:00,
2013-02-27 07:57:00,27.9,23.7,29.37,North,1,13.2,13.2,84,0.00,,,0.00,VWS V14.01,2013-02-27 13:57:00,
2013-02-27 08:02:00,27.9,23.7,29.37,North,357,12.8,14.5,84,0.00,,,0.00,VWS V14.01,2013-02-27 14:02:00,
2013-02-27 08:08:00,28.0,24.1,29.40,NNE,12,12.8,12.8,85,0.00,,,0.00,VWS V14.01,2013-02-27 14:08:00,
2013-02-27 08:14:00,28.0,24.1,29.40,North,1,7.2,11.0,85,0.00,,,0.00,VWS V14.01,2013-02-27 14:14:00,
2013-02-27 08:19:00,28.2,24.3,29.40,NNE,32,11.0,15.0,85,0.00,,,0.00,VWS V14.01,2013-02-27 14:19:00,
2013-02-27 08:25:00,28.2,24.3,29.40,NNE,20,9.6,13.2,85,0.00,,,0.00,VWS V14.01,2013-02-27 14:25:00,
2013-02-27 08:30:00,28.2,24.3,29.40,NNE,30,8.3,10.5,85,0.00,,,0.00,VWS V14.01,2013-02-27 14:30:00,
2013-02-27 08:36:00,28.4,24.8,29.40,NNE,16,8.7,10.5,86,0.00,,,0.00,VWS V14.01,2013-02-27 14:36:00,
2013-02-27 08:41:00,28.6,24.9,29.40,NNE,17,13.2,13.2,86,0.00,,,0.00,VWS V14.01,2013-02-27 14:41:00,
2013-02-27 08:46:00,28.6,24.9,29.40,NNE,15,8.1,10.5,86,0.00,,,0.00,VWS V14.01,2013-02-27 14:46:00,
2013-02-27 08:52:00,28.6,24.9,29.40,NNE,21,10.5,15.4,86,0.00,,,0.00,VWS V14.01,2013-02-27 14:52:00,
2013-02-27 08:57:00,28.6,24.9,29.37,North,6,8.1,13.6,86,0.00,,,0.00,VWS V14.01,2013-02-27 14:57:00,
2013-02-27 09:02:00,28.6,24.9,29.37,North,8,12.3,15.0,86,0.00,,,0.00,VWS V14.01,2013-02-27 15:02:00,
2013-02-27 09:07:00,28.8,25.1,29.37,North,3,10.5,13.6,86,0.00,,,0.00,VWS V14.01,2013-02-27 15:07:00,
2013-02-27 09:13:00,28.9,25.3,29.40,North,5,12.3,12.8,86,0.00,,,0.00,VWS V14.01,2013-02-27 15:13:00,
2013-02-27 09:18:00,28.9,25.3,29.40,North,7,8.3,10.1,86,0.00,,,0.00,VWS V14.01,2013-02-27 15:18:00,
2013-02-27 09:23:00,29.1,25.7,29.40,North,9,8.7,8.7,87,0.00,,,0.00,VWS V14.01,2013-02-27 15:23:00,
2013-02-27 09:28:00,29.3,25.9,29.40,NNE,28,12.8,15.0,87,0.00,,,0.00,VWS V14.01,2013-02-27 15:28:00,
2013-02-27 09:33:00,29.5,26.1,29.40,North,11,12.3,12.3,87,0.00,,,0.00,VWS V14.01,2013-02-27 15:33:00,
2013-02-27 09:38:00,29.5,25.8,29.40,NNE,17,5.8,12.8,86,0.00,,,0.00,VWS V14.01,2013-02-27 15:38:00,
2013-02-27 09:44:00,29.5,25.8,29.40,NNE,15,8.3,10.5,86,0.00,,,0.00,VWS V14.01,2013-02-27 15:44:00,
2013-02-27 09:49:00,29.7,26.0,29.40,NNE,21,8.1,9.2,86,0.00,,,0.00,VWS V14.01,2013-02-27 15:49:00,
2013-02-27 09:55:00,29.5,25.5,29.40,NNE,14,8.3,15.0,85,0.00,,,0.00,VWS V14.01,2013-02-27 15:55:00,
2013-02-27 10:00:00,29.5,25.2,29.40,North,8,10.1,16.3,84,0.00,,,0.00,VWS V14.01,2013-02-27 16:00:00,
2013-02-27 10:05:00,29.7,25.1,29.40,NNE,27,11.0,15.0,83,0.00,,,0.00,VWS V14.01,2013-02-27 16:05:00,
2013-02-27 10:11:00,30.0,25.2,29.40,NNE,20,8.7,13.2,82,0.00,,,0.00,VWS V14.01,2013-02-27 16:11:00,
2013-02-27 10:17:00,30.2,25.1,29.40,North,357,8.3,13.2,81,0.00,,,0.00,VWS V14.01,2013-02-27 16:17:00,
2013-02-27 10:22:00,30.2,24.8,29.40,North,357,13.2,13.2,80,0.00,,,0.00,VWS V14.01,2013-02-27 16:22:00,
2013-02-27 10:28:00,30.2,25.1,29.40,NNE,21,11.0,11.0,81,0.00,,,0.00,VWS V14.01,2013-02-27 16:28:00,
2013-02-27 10:33:00,30.4,25.0,29.40,NNE,30,10.5,11.0,80,0.00,,,0.00,VWS V14.01,2013-02-27 16:33:00,
2013-02-27 10:38:00,30.6,25.4,29.40,NNE,17,8.1,12.3,81,0.00,,,0.00,VWS V14.01,2013-02-27 16:38:00,
2013-02-27 10:43:00,30.6,24.8,29.40,North,8,12.3,15.4,79,0.00,,,0.00,VWS V14.01,2013-02-27 16:43:00,
2013-02-27 10:49:00,30.7,25.0,29.40,NNE,13,10.1,11.0,79,0.00,,,0.00,VWS V14.01,2013-02-27 16:49:00,
2013-02-27 10:55:00,30.9,25.2,29.40,NNE,13,6.3,8.7,79,0.00,,,0.00,VWS V14.01,2013-02-27 16:55:00,
2013-02-27 11:00:00,30.9,24.9,29.40,North,10,8.1,10.5,78,0.00,,,0.00,VWS V14.01,2013-02-27 17:00:00,
2013-02-27 11:05:00,30.9,24.9,29.40,North,357,8.7,12.8,78,0.00,,OVC012,0.00,VWS V14.01,2013-02-27 17:05:00,
2013-02-27 11:10:00,30.9,25.2,29.40,NNE,23,8.7,8.7,79,0.00,,OVC012,0.00,VWS V14.01,2013-02-27 17:10:00,
2013-02-27 11:16:00,30.9,25.5,29.40,NNE,19,13.2,13.2,80,0.00,,OVC012,0.00,VWS V14.01,2013-02-27 17:16:00,
2013-02-27 11:21:00,30.9,25.5,29.40,NNE,13,12.3,12.3,80,0.00,,OVC012,0.00,VWS V14.01,2013-02-27 17:21:00,
2013-02-27 11:26:00,30.9,25.5,29.40,NE,35,10.1,16.3,80,0.00,,OVC012,0.00,VWS V14.01,2013-02-27 17:26:00,
2013-02-27 11:31:00,30.9,25.2,29.40,NNE,22,12.3,13.2,79,0.00,,OVC012,0.00,VWS V14.01,2013-02-27 17:31:00,
2013-02-27 11:36:00,30.7,25.0,29.40,North,10,8.7,13.2,79,0.00,,OVC012,0.00,VWS V14.01,2013-02-27 17:36:00,
2013-02-27 11:41:00,30.7,24.7,29.40,North,7,11.0,11.0,78,0.00,,OVC012,0.00,VWS V14.01,2013-02-27 17:41:00,
2013-02-27 11:47:00,30.9,25.2,29.40,NNE,22,8.3,11.0,79,0.00,,OVC012,0.00,VWS V14.01,2013-02-27 17:47:00,
2013-02-27 11:52:00,30.9,25.2,29.40,NNE,27,10.5,15.0,79,0.00,,OVC012,0.00,VWS V14.01,2013-02-27 17:52:00,
2013-02-27 11:58:00,30.7,24.7,29.40,North,11,7.6,14.1,78,0.00,,OVC012,0.00,VWS V14.01,2013-02-27 17:58:00,
2013-02-27 12:03:00,30.9,25.2,29.40,North,5,10.1,10.1,79,0.00,,,0.00,VWS V14.01,2013-02-27 18:03:00,
2013-02-27 12:09:00,30.9,25.2,29.40,North,11,8.1,11.0,79,0.00,,,0.00,VWS V14.01,2013-02-27 18:09:00,
2013-02-27 12:15:00,30.9,25.2,29.40,North,2,12.8,13.6,79,0.00,,,0.00,VWS V14.01,2013-02-27 18:15:00,
2013-02-27 12:20:00,30.9,25.2,29.40,North,10,13.2,13.2,79,0.00,,,0.00,VWS V14.01,2013-02-27 18:20:00,
2013-02-27 12:25:00,31.1,25.4,29.40,NNE,17,13.2,13.2,79,0.00,,,0.00,VWS V14.01,2013-02-27 18:25:00,
2013-02-27 12:31:00,31.1,25.4,29.40,NNE,12,10.5,15.0,79,0.00,,,0.00,VWS V14.01,2013-02-27 18:31:00,
2013-02-27 12:36:00,31.1,25.0,29.40,North,2,8.7,11.4,78,0.00,,,0.00,VWS V14.01,2013-02-27 18:36:00,
2013-02-27 12:41:00,31.1,25.0,29.40,NNE,28,10.5,13.2,78,0.00,,,0.00,VWS V14.01,2013-02-27 18:41:00,
2013-02-27 12:47:00,31.1,25.4,29.40,NNE,21,8.7,15.9,79,0.00,,,0.00,VWS V14.01,2013-02-27 18:47:00,
2013-02-27 12:52:00,31.1,25.4,29.40,North,9,12.8,15.9,79,0.00,,,0.00,VWS V14.01,2013-02-27 18:52:00,
2013-02-27 12:58:00,30.9,25.2,29.40,NNE,22,15.4,15.4,79,0.00,,,0.00,VWS V14.01,2013-02-27 18:58:00,
2013-02-27 13:03:00,30.9,25.5,29.40,NNE,13,9.6,12.3,80,0.00,,,0.00,VWS V14.01,2013-02-27 19:03:00,
2013-02-27 13:09:00,30.7,25.3,29.37,North,11,10.5,15.0,80,0.00,,,0.00,VWS V14.01,2013-02-27 19:09:00,
2013-02-27 13:15:00,30.9,25.8,29.37,North,8,7.6,12.8,81,0.00,,,0.00,VWS V14.01,2013-02-27 19:15:00,
2013-02-27 13:20:00,31.1,26.3,29.37,North,11,15.4,15.4,82,0.00,,,0.00,VWS V14.01,2013-02-27 19:20:00,
2013-02-27 13:25:00,31.3,26.4,29.40,NNE,16,7.6,11.0,82,0.00,,,0.00,VWS V14.01,2013-02-27 19:25:00,
2013-02-27 13:30:00,31.5,26.9,29.40,NNE,17,10.1,15.4,83,0.00,,,0.00,VWS V14.01,2013-02-27 19:30:00,
2013-02-27 13:36:00,31.3,26.7,29.40,North,353,8.1,10.5,83,0.00,,,0.00,VWS V14.01,2013-02-27 19:36:00,
2013-02-27 13:41:00,31.3,27.0,29.37,North,11,8.1,15.4,84,0.00,,,0.00,VWS V14.01,2013-02-27 19:41:00,
2013-02-27 13:46:00,31.5,27.2,29.37,NNE,23,8.7,10.1,84,0.00,,,0.00,VWS V14.01,2013-02-27 19:46:00,
2013-02-27 13:51:00,31.5,27.2,29.37,North,5,10.5,13.2,84,0.00,,,0.00,VWS V14.01,2013-02-27 19:51:00,
2013-02-27 13:56:00,31.3,26.4,29.37,NNE,19,11.0,15.4,82,0.00,,,0.00,VWS V14.01,2013-02-27 19:56:00,
2013-02-27 14:01:00,31.5,26.0,29.37,NNE,32,8.1,15.0,80,0.00,,,0.00,VWS V14.01,2013-02-27 20:01:00,
2013-02-27 14:06:00,31.5,25.4,29.37,North,353,11.0,12.3,78,0.00,,,0.00,VWS V14.01,2013-02-27 20:06:00,
2013-02-27 14:12:00,31.6,25.0,29.40,NNE,18,8.7,13.6,76,0.00,,,0.00,VWS V14.01,2013-02-27 20:12:00,
2013-02-27 14:18:00,31.8,24.8,29.40,North,0,11.0,14.5,75,0.00,,,0.00,VWS V14.01,2013-02-27 20:18:00,
2013-02-27 14:23:00,31.6,23.3,29.40,NNE,15,9.6,17.0,71,0.00,,,0.00,VWS V14.01,2013-02-27 20:23:00,
2013-02-27 14:28:00,31.8,23.5,29.40,NNE,18,16.3,16.3,71,0.00,,,0.00,VWS V14.01,2013-02-27 20:28:00,
2013-02-27 14:33:00,31.8,23.5,29.40,NNE,28,12.3,12.3,71,0.00,,,0.00,VWS V14.01,2013-02-27 20:33:00,
2013-02-27 14:38:00,31.8,22.8,29.40,NE,35,11.0,15.4,69,0.00,,,0.00,VWS V14.01,2013-02-27 20:38:00,
2013-02-27 14:44:00,31.6,22.3,29.40,NNE,14,11.0,13.6,68,0.00,,,0.00,VWS V14.01,2013-02-27 20:44:00,
2013-02-27 14:50:00,31.6,22.0,29.40,North,10,15.4,17.4,67,0.00,,,0.00,VWS V14.01,2013-02-27 20:50:00,
2013-02-27 14:55:00,31.8,21.8,29.40,NNW,342,12.3,15.0,66,0.00,,,0.00,VWS V14.01,2013-02-27 20:55:00,
2013-02-27 15:00:00,31.8,22.1,29.40,NNE,14,10.1,11.0,67,0.00,,,0.00,VWS V14.01,2013-02-27 21:00:00,
2013-02-27 15:05:00,32.0,22.6,29.40,NNE,18,10.5,11.0,68,0.00,,OVC014,0.00,VWS V14.01,2013-02-27 21:05:00,
2013-02-27 15:10:00,32.0,23.0,29.40,North,353,12.3,12.3,69,0.00,,OVC014,0.00,VWS V14.01,2013-02-27 21:10:00,
2013-02-27 15:15:00,32.0,23.3,29.40,North,1,14.1,14.1,70,0.00,,OVC014,0.00,VWS V14.01,2013-02-27 21:15:00,
2013-02-27 15:21:00,32.0,23.7,29.40,NNE,27,11.4,11.4,71,0.00,,OVC014,0.00,VWS V14.01,2013-02-27 21:21:00,
2013-02-27 15:26:00,31.8,23.2,29.40,North,357,7.6,11.0,70,0.00,,OVC014,0.00,VWS V14.01,2013-02-27 21:26:00,
2013-02-27 15:32:00,31.6,22.6,29.40,North,357,10.1,11.0,69,0.00,,OVC014,0.00,VWS V14.01,2013-02-27 21:32:00,
2013-02-27 15:38:00,31.8,22.1,29.40,NNE,17,8.3,8.7,67,0.00,,OVC014,0.00,VWS V14.01,2013-02-27 21:38:00,
2013-02-27 15:43:00,31.8,21.8,29.43,North,9,8.1,11.0,66,0.00,,OVC014,0.00,VWS V14.01,2013-02-27 21:43:00,
2013-02-27 15:49:00,31.8,21.8,29.43,North,8,12.8,12.8,66,0.00,,OVC014,0.00,VWS V14.01,2013-02-27 21:49:00,
2013-02-27 15:54:00,31.6,22.0,29.43,North,5,7.6,13.2,67,0.00,,OVC014,0.00,VWS V14.01,2013-02-27 21:54:00,
2013-02-27 16:00:00,31.6,22.3,29.43,NNE,15,12.3,12.3,68,0.00,,OVC014,0.00,VWS V14.01,2013-02-27 22:00:00,
2013-02-27 16:05:00,31.5,21.8,29.43,North,5,11.0,11.0,67,0.00,,OVC012,0.00,VWS V14.01,2013-02-27 22:05:00,
2013-02-27 16:11:00,31.6,22.6,29.43,North,4,9.6,10.5,69,0.00,,OVC012,0.00,VWS V14.01,2013-02-27 22:11:00,
2013-02-27 16:16:00,31.6,22.3,29.43,North,7,10.1,10.5,68,0.00,,OVC012,0.00,VWS V14.01,2013-02-27 22:16:00,
2013-02-27 16:22:00,31.6,21.6,29.43,NNE,17,11.0,15.4,66,0.00,,OVC012,0.00,VWS V14.01,2013-02-27 22:22:00,
2013-02-27 16:28:00,31.6,22.0,29.43,North,357,12.3,12.3,67,0.00,,OVC012,0.00,VWS V14.01,2013-02-27 22:28:00,
2013-02-27 16:34:00,31.6,22.0,29.43,NNE,28,10.1,12.8,67,0.00,,OVC012,0.00,VWS V14.01,2013-02-27 22:34:00,
2013-02-27 16:39:00,31.6,21.2,29.43,NNE,12,15.4,15.4,65,0.00,,OVC012,0.00,VWS V14.01,2013-02-27 22:39:00,
2013-02-27 16:45:00,31.5,21.1,29.43,North,8,8.3,10.1,65,0.00,,OVC012,0.00,VWS V14.01,2013-02-27 22:45:00,
2013-02-27 16:50:00,31.5,21.4,29.43,North,4,8.3,11.0,66,0.00,,OVC012,0.00,VWS V14.01,2013-02-27 22:50:00,
2013-02-27 16:56:00,31.5,21.4,29.43,North,8,6.3,8.7,66,0.00,,OVC012,0.00,VWS V14.01,2013-02-27 22:56:00,
2013-02-27 17:01:00,31.6,22.0,29.43,North,6,8.1,8.7,67,0.00,,OVC012,0.00,VWS V14.01,2013-02-27 23:01:00,
2013-02-27 17:07:00,31.5,22.1,29.43,North,7,11.0,11.0,68,0.00,,OVC012,0.00,VWS V14.01,2013-02-27 23:07:00,
2013-02-27 17:13:00,31.5,22.5,29.43,North,0,10.5,11.0,69,0.00,,OVC012,0.00,VWS V14.01,2013-02-27 23:13:00,
2013-02-27 17:18:00,31.5,22.8,29.43,NNE,24,11.0,12.8,70,0.00,,OVC012,0.00,VWS V14.01,2013-02-27 23:18:00,
2013-02-27 17:23:00,31.5,22.8,29.43,NNE,30,12.3,12.8,70,0.00,,OVC012,0.00,VWS V14.01,2013-02-27 23:23:00,
2013-02-27 17:28:00,31.5,22.8,29.46,NNW,342,12.8,12.8,70,0.00,,OVC012,0.00,VWS V14.01,2013-02-27 23:28:00,
2013-02-27 17:33:00,31.5,23.2,29.46,North,5,8.7,12.8,71,0.00,,OVC012,0.00,VWS V14.01,2013-02-27 23:33:00,
2013-02-27 17:38:00,31.5,23.2,29.46,North,9,7.6,12.8,71,0.00,,OVC012,0.00,VWS V14.01,2013-02-27 23:38:00,
2013-02-27 17:44:00,31.5,23.5,29.46,NNE,29,9.2,9.6,72,0.00,,OVC012,0.00,VWS V14.01,2013-02-27 23:44:00,
2013-02-27 17:49:00,31.3,23.6,29.46,North,2,5.8,10.5,73,0.00,,OVC012,0.00,VWS V14.01,2013-02-27 23:49:00,
2013-02-27 17:55:00,31.3,24.0,29.46,North,357,8.1,10.1,74,0.00,,OVC012,0.00,VWS V14.01,2013-02-27 23:55:00,
2013-02-27 18:00:00,31.1,24.1,29.46,North,10,7.6,10.1,75,0.00,,OVC012,0.00,VWS V14.01,2013-02-28 00:00:00,
2013-02-27 18:05:00,31.1,24.4,29.46,NNE,12,7.6,9.2,76,0.00,,,0.00,VWS V14.01,2013-02-28 00:05:00,
2013-02-27 18:10:00,31.1,24.8,29.46,North,357,8.1,11.0,77,0.00,,,0.00,VWS V14.01,2013-02-28 00:10:00,
2013-02-27 18:16:00,31.1,25.4,29.46,North,357,6.3,8.1,79,0.00,,,0.00,VWS V14.01,2013-02-28 00:16:00,
2013-02-27 18:21:00,31.1,25.4,29.46,North,6,7.6,9.6,79,0.00,,,0.00,VWS V14.01,2013-02-28 00:21:00,
2013-02-27 18:27:00,30.9,25.5,29.46,North,357,8.3,10.1,80,0.00,,,0.00,VWS V14.01,2013-02-28 00:27:00,
2013-02-27 18:33:00,30.9,25.8,29.46,North,357,5.8,8.1,81,0.00,,,0.00,VWS V14.01,2013-02-28 00:33:00,
2013-02-27 18:38:00,31.1,26.3,29.49,North,3,12.3,12.8,82,0.00,,,0.00,VWS V14.01,2013-02-28 00:38:00,
2013-02-27 18:44:00,31.1,26.5,29.49,North,3,8.7,8.7,83,0.00,,,0.00,VWS V14.01,2013-02-28 00:44:00,
2013-02-27 18:49:00,31.1,26.8,29.49,North,4,10.5,12.8,84,0.00,,,0.00,VWS V14.01,2013-02-28 00:49:00,
2013-02-27 18:54:00,31.1,26.8,29.46,NNE,14,7.6,9.2,84,0.00,,,0.00,VWS V14.01,2013-02-28 00:54:00,
2013-02-27 18:59:00,31.1,27.1,29.46,North,2,8.3,10.1,85,0.00,,,0.00,VWS V14.01,2013-02-28 00:59:00,
2013-02-27 19:04:00,31.1,27.1,29.46,NNW,346,10.1,11.0,85,0.00,,,0.00,VWS V14.01,2013-02-28 01:04:00,
2013-02-27 19:09:00,31.1,27.1,29.49,NNE,18,15.0,15.0,85,0.00,,,0.00,VWS V14.01,2013-02-28 01:09:00,
2013-02-27 19:14:00,31.1,27.4,29.49,North,9,10.5,12.3,86,0.00,,,0.00,VWS V14.01,2013-02-28 01:14:00,
2013-02-27 19:20:00,31.1,27.4,29.49,NNW,346,8.3,12.8,86,0.00,,,0.00,VWS V14.01,2013-02-28 01:20:00,
2013-02-27 19:25:00,31.1,27.4,29.49,North,0,11.0,15.4,86,0.00,,,0.00,VWS V14.01,2013-02-28 01:25:00,
2013-02-27 19:31:00,31.1,27.4,29.49,North,357,9.2,15.9,86,0.00,,,0.00,VWS V14.01,2013-02-28 01:31:00,
2013-02-27 19:37:00,30.9,27.5,29.49,NNE,12,11.0,11.0,87,0.00,,,0.00,VWS V14.01,2013-02-28 01:37:00,
2013-02-27 19:42:00,31.1,27.7,29.49,NNE,21,12.3,12.3,87,0.00,,,0.00,VWS V14.01,2013-02-28 01:42:00,
2013-02-27 19:48:00,31.1,27.7,29.49,North,357,12.8,12.8,87,0.00,,,0.00,VWS V14.01,2013-02-28 01:48:00,
2013-02-27 19:53:00,30.9,27.5,29.49,NNW,338,8.1,12.8,87,0.00,,,0.00,VWS V14.01,2013-02-28 01:53:00,
2013-02-27 19:58:00,31.1,27.7,29.49,NNE,20,10.1,11.0,87,0.00,,,0.00,VWS V14.01,2013-02-28 01:58:00,
2013-02-27 20:04:00,31.1,27.4,29.49,North,357,8.1,8.7,86,0.00,,,0.00,VWS V14.01,2013-02-28 02:04:00,
2013-02-27 20:09:00,30.9,27.2,29.49,NNE,13,10.5,12.8,86,0.00,,,0.00,VWS V14.01,2013-02-28 02:09:00,
2013-02-27 20:15:00,30.9,27.2,29.49,North,9,6.7,8.3,86,0.00,,,0.00,VWS V14.01,2013-02-28 02:15:00,
2013-02-27 20:20:00,30.9,27.0,29.49,North,353,11.0,11.4,85,0.00,,,0.00,VWS V14.01,2013-02-28 02:20:00,
2013-02-27 20:25:00,30.9,27.0,29.49,North,4,10.1,10.1,85,0.00,,,0.00,VWS V14.01,2013-02-28 02:25:00,
2013-02-27 20:30:00,30.7,26.5,29.49,NNE,12,8.1,10.1,84,0.00,,,0.00,VWS V14.01,2013-02-28 02:30:00,
2013-02-27 20:35:00,30.7,26.5,29.49,North,0,8.3,13.6,84,0.00,,,0.00,VWS V14.01,2013-02-28 02:35:00,
2013-02-27 20:40:00,30.7,26.2,29.49,North,5,12.8,12.8,83,0.00,,,0.00,VWS V14.01,2013-02-28 02:40:00,
2013-02-27 20:45:00,30.7,26.2,29.49,NNE,14,8.1,13.6,83,0.00,,,0.00,VWS V14.01,2013-02-28 02:45:00,
2013-02-27 20:51:00,30.7,26.2,29.49,North,357,7.6,10.5,83,0.00,,,0.00,VWS V14.01,2013-02-28 02:51:00,
2013-02-27 20:57:00,30.7,26.2,29.49,North,357,11.0,11.4,83,0.00,,,0.00,VWS V14.01,2013-02-28 02:57:00,
2013-02-27 21:02:00,30.7,26.2,29.49,NNE,22,8.7,10.1,83,0.00,,,0.00,VWS V14.01,2013-02-28 03:02:00,
2013-02-27 21:08:00,30.7,26.2,29.49,North,5,8.3,11.4,83,0.00,,,0.00,VWS V14.01,2013-02-28 03:08:00,
2013-02-27 21:13:00,30.7,26.2,29.49,North,357,7.6,10.5,83,0.00,,,0.00,VWS V14.01,2013-02-28 03:13:00,
2013-02-27 21:19:00,30.9,26.4,29.49,NNW,335,6.3,11.0,83,0.00,,,0.00,VWS V14.01,2013-02-28 03:19:00,
2013-02-27 21:24:00,30.9,26.1,29.49,NNW,339,8.3,10.1,82,0.00,,,0.00,VWS V14.01,2013-02-28 03:24:00,
2013-02-27 21:30:00,31.1,26.3,29.49,North,5,7.6,8.1,82,0.00,,,0.00,VWS V14.01,2013-02-28 03:30:00,
2013-02-27 21:36:00,31.1,26.3,29.49,North,350,10.1,10.1,82,0.00,,,0.00,VWS V14.01,2013-02-28 03:36:00,
2013-02-27 21:41:00,31.1,26.0,29.49,North,11,13.2,13.2,81,0.00,,,0.00,VWS V14.01,2013-02-28 03:41:00,
2013-02-27 21:46:00,31.1,25.7,29.49,NNE,12,9.2,11.9,80,0.00,,,0.00,VWS V14.01,2013-02-28 03:46:00,
2013-02-27 21:51:00,31.1,25.4,29.49,North,357,6.3,9.6,79,0.00,,,0.00,VWS V14.01,2013-02-28 03:51:00,
2013-02-27 21:56:00,31.1,25.4,29.52,North,8,8.3,11.0,79,0.00,,,0.00,VWS V14.01,2013-02-28 03:56:00,
2013-02-27 22:01:00,31.1,25.0,29.52,North,7,10.1,11.0,78,0.00,,OVC010,0.00,VWS V14.01,2013-02-28 04:01:00,
2013-02-27 22:07:00,31.3,25.2,29.52,North,4,10.5,10.5,78,0.00,,OVC010,0.00,VWS V14.01,2013-02-28 04:07:00,
2013-02-27 22:12:00,31.3,25.2,29.52,NNE,26,13.2,13.2,78,0.00,,OVC010,0.00,VWS V14.01,2013-02-28 04:12:00,
2013-02-27 22:18:00,31.3,25.2,29.52,North,8,10.1,12.3,78,0.00,,OVC010,0.00,VWS V14.01,2013-02-28 04:18:00,
2013-02-27 22:24:00,31.3,24.9,29.52,NNE,14,8.7,11.0,77,0.00,,OVC010,0.00,VWS V14.01,2013-02-28 04:24:00,
2013-02-27 22:29:00,31.3,24.6,29.52,North,11,8.3,12.8,76,0.00,,OVC010,0.00,VWS V14.01,2013-02-28 04:29:00,
2013-02-27 22:34:00,31.3,24.6,29.52,North,5,8.7,8.7,76,0.00,,OVC010,0.00,VWS V14.01,2013-02-28 04:34:00,
2013-02-27 22:39:00,31.3,24.6,29.52,North,0,13.2,13.2,76,0.00,,OVC010,0.00,VWS V14.01,2013-02-28 04:39:00,
2013-02-27 22:44:00,31.3,24.6,29.52,North,353,11.0,11.0,76,0.00,,OVC010,0.00,VWS V14.01,2013-02-28 04:44:00,
2013-02-27 22:50:00,31.3,24.6,29.52,North,0,10.1,10.1,76,0.00,,OVC010,0.00,VWS V14.01,2013-02-28 04:50:00,
2013-02-27 22:55:00,31.3,24.6,29.52,North,357,11.4,11.4,76,0.00,,OVC010,0.00,VWS V14.01,2013-02-28 04:55:00,
2013-02-27 23:00:00,31.3,24.6,29.52,NNE,13,11.0,11.0,76,0.00,,OVC010,0.00,VWS V14.01,2013-02-28 05:00:00,
2013-02-27 23:01:00,31.3,24.6,29.52,North,11,10.5,13.2,76,0.00,,OVC010,0.00,VWS V14.01,2013-02-28 05:01:00,
2013-02-27 23:02:00,31.3,24.6,29.52,North,6,13.2,13.2,76,0.00,,OVC010,0.00,VWS V14.01,2013-02-28 05:02:00,
2013-02-27 23:03:00,31.3,24.6,29.52,North,11,8.3,13.2,76,0.00,,OVC010,0.00,VWS V14.01,2013-02-28 05:03:00,
2013-02-27 23:08:00,31.3,24.9,29.52,North,10,8.7,9.6,77,0.00,,OVC010,0.00,VWS V14.01,2013-02-28 05:08:00,
2013-02-27 23:14:00,31.1,24.8,29.52,NNE,14,9.6,11.0,77,0.00,,OVC010,0.00,VWS V14.01,2013-02-28 05:14:00,
2013-02-27 23:19:00,31.3,25.2,29.52,NNE,14,8.7,12.8,78,0.00,,OVC010,0.00,VWS V14.01,2013-02-28 05:19:00,
2013-02-27 23:25:00,31.1,25.4,29.52,North,5,8.7,8.7,79,0.00,,OVC010,0.00,VWS V14.01,2013-02-28 05:25:00,
2013-02-27 23:31:00,31.1,25.4,29.52,North,3,11.0,11.0,79,0.00,,OVC010,0.00,VWS V14.01,2013-02-28 05:31:00,
2013-02-27 23:36:00,31.1,25.7,29.52,North,11,6.3,9.6,80,0.00,,OVC010,0.00,VWS V14.01,2013-02-28 05:36:00,
2013-02-27 23:42:00,31.1,26.0,29.52,North,357,12.3,12.3,81,0.00,,OVC010,0.00,VWS V14.01,2013-02-28 05:42:00,
2013-02-27 23:48:00,31.1,26.3,29.52,North,11,7.6,10.1,82,0.00,,OVC010,0.00,VWS V14.01,2013-02-28 05:48:00,
2013-02-27 23:53:00,30.9,26.1,29.52,North,1,10.5,13.2,82,0.00,,OVC010,0.00,VWS V14.01,2013-02-28 05:53:00,
2013-02-27 23:59:00,30.9,26.4,29.52,North,353,7.6,12.3,83,0.00,,OVC010,0.00,VWS V14.01,2013-02-28 05:59:00,